(191342) = 2003 QK32

Discovered at Palomar on 2003-08-21 by NEAT.

Orbit

Orbit type: Main Belt

Note: WebGL enabled browser required.

epoch2023-09-13.0
epoch JD2460200.5
perihelion date2023-04-04.50408
perihelion JD2460039.00408
argument of perihelion (°)337.30559
ascending node (°)333.04476
inclination (°)4.89810
eccentricity0.0559823
perihelion distance (AU)2.7539405
Tisserand w.r.t. Jupiter3.3
ΔV w.r.t. Earth (km/sec)10.4
semimajor axis (AU)2.9172551
mean anomaly (°)31.94506
mean daily motion (°/day)0.19780730
aphelion distance (AU)3.081
period (years)4.98
P-vector [x]0.64809851
P-vector [y]-0.68495667
P-vector [z]-0.33287036
Q-vector [x]0.76057236
Q-vector [y]0.55994335
Q-vector [z]0.32862308
absolute magnitude15.61
phase slope0.15
uncertainty0
referenceMPEC 2024-A34
observations used522
oppositions18
arc length (days)9251
first opposition used1998
last opposition used2023
residual rms (arc-secs)0.72
perturbers coarse indicatorM-v
perturbers precise indicator003Ek
first observation date used1998-09-01.0
last observation date used2023-12-30.0
computer nameMPCLINUX
JD of orbit computation2456581.570200
perihelion JD uncertainty (days)2.6357E-04
argument of perihelion uncertainty (°)7.3341E-05
ascending node uncertainty (°)5.0552E-05
inclination uncertainty (°)8.5822E-06
eccentricity uncertainty 6.9774E-08
perihelion distance uncertainty (AU)2.0228E-07
Minimum Orbit Intersection Distances (in AU)
for orbit epoch: 2460200.5, reference: E2024-A34
Mercury2.31244
Venus2.02582
Earth1.73983
Mars1.33456
Jupiter2.09207
Saturn6.01743
Uranus15.3924
Neptune26.9484

Observations

539 total observations over interval: 1998 09 01.24627 – 2023 12 30.235391
These data are available for download (format description).

Date (UT) J2000 RA J2000 Dec Magn Location Ref
1998 09 01.24627 22 31 07.86 -08 47 37.4 19.2 V 691 – Steward Observatory, Kitt Peak-Spacewatch MPS 90472
1998 09 01.26765 22 31 06.73 -08 47 41.1 19.2 V 691 – Steward Observatory, Kitt Peak-Spacewatch MPS 90472
1998 09 01.28923 22 31 05.60 -08 47 44.5 19.2 V 691 – Steward Observatory, Kitt Peak-Spacewatch MPS 90472
2002 05 10.33830 15 28 43.71 -26 35 37.3 20.2   644 – Palomar Mountain/NEAT MPS 86943
2002 05 10.36666 15 28 42.15 -26 35 33.4 20.2   644 – Palomar Mountain/NEAT MPS 86943
2002 05 10.39727 15 28 40.44 -26 35 29.2 20.2   644 – Palomar Mountain/NEAT MPS 86943
2002 06 05.28316 15 06 45.85 -25 11 07.0 20.1   644 – Palomar Mountain/NEAT MPS 86943
2002 06 05.30399 15 06 44.96 -25 11 01.8 20.2   644 – Palomar Mountain/NEAT MPS 86943
2002 06 05.32499 15 06 44.05 -25 10 57.6 20.1   644 – Palomar Mountain/NEAT MPS 86943
2003 08 21.42799 22 50 05.08 -06 58 54.2 19.2   644 – Palomar Mountain/NEAT MPS 83480
2003 08 21.45010 22 50 04.02 -06 58 57.7 19.1   644 – Palomar Mountain/NEAT MPS 83480
2003 08 21.47229 22 50 02.93 -06 59 01.2 19.2   644 – Palomar Mountain/NEAT MPS 83480
2003 08 25.27316 22 47 01.28 -07 10 02.8 18.8   704 – Lincoln Laboratory ETS, New Mexico MPS 83480
2003 08 25.28600 22 47 00.63 -07 10 04.7 18.9   704 – Lincoln Laboratory ETS, New Mexico MPS 83480
2003 08 25.29855 22 47 00.01 -07 10 07.1 18.9   704 – Lincoln Laboratory ETS, New Mexico MPS 83480
2003 08 25.31111 22 46 59.34 -07 10 09.0 18.8   704 – Lincoln Laboratory ETS, New Mexico MPS 83480
2003 08 25.32354 22 46 58.73 -07 10 11.1 19.2   704 – Lincoln Laboratory ETS, New Mexico MPS 83480
2003 09 01.24753 22 41 14.75 -07 31 26.7 18.9   704 – Lincoln Laboratory ETS, New Mexico MPS 84097
2003 09 01.25936 22 41 14.05 -07 31 28.1 19.4   704 – Lincoln Laboratory ETS, New Mexico MPS 84097
2003 09 01.27111 22 41 13.54 -07 31 30.2 19.5   704 – Lincoln Laboratory ETS, New Mexico MPS 84097
2003 09 01.28297 22 41 12.93 -07 31 32.3 19.1   704 – Lincoln Laboratory ETS, New Mexico MPS 84097
2003 09 17.15254 22 28 36.13 -08 17 46.8 19.8 V 291 – LPL/Spacewatch II MPS 84565
2003 09 17.16480 22 28 35.59 -08 17 48.5 20.3 V 291 – LPL/Spacewatch II MPS 84565
2003 09 17.17713 22 28 35.05 -08 17 50.3 20.2 V 291 – LPL/Spacewatch II MPS 84565
2003 09 17.18152 22 28 34.89 -08 17 50.0 18.9 R 699 – Lowell Observatory-LONEOS MPS 85261
2003 09 17.19981 22 28 34.03 -08 17 55.0   699 – Lowell Observatory-LONEOS MPS 85261
2003 09 17.21817 22 28 33.07 -08 17 56.7   699 – Lowell Observatory-LONEOS MPS 85261
2003 09 17.23647 22 28 32.37 -08 17 58.9   699 – Lowell Observatory-LONEOS MPS 85261
2003 09 18.17716 22 27 52.67 -08 20 17.1 19.2 R 699 – Lowell Observatory-LONEOS MPS 85261
2003 09 18.19543 22 27 51.72 -08 20 22.2   699 – Lowell Observatory-LONEOS MPS 85261
2003 09 18.21376 22 27 50.79 -08 20 25.1   699 – Lowell Observatory-LONEOS MPS 85261
2003 09 18.23208 22 27 50.02 -08 20 27.6   699 – Lowell Observatory-LONEOS MPS 85261
2006 02 04.34962 10 26 25.52 +10 24 52.5 20.1 V 691 – Steward Observatory, Kitt Peak-Spacewatch MPS 162773
2006 02 04.36701 10 26 24.73 +10 24 56.1 20.2 V 691 – Steward Observatory, Kitt Peak-Spacewatch MPS 162773
2006 02 04.38536 10 26 23.91 +10 24 59.1 20.4 V 691 – Steward Observatory, Kitt Peak-Spacewatch MPS 162773
2006 02 20.39471 10 13 19.30 +11 17 14.6 19.7 V G96 – Mt. Lemmon Survey MPS 163783
2006 02 20.39941 10 13 19.05 +11 17 15.6 19.7 V G96 – Mt. Lemmon Survey MPS 163783
2006 02 20.40479 10 13 18.76 +11 17 16.7 19.6 V G96 – Mt. Lemmon Survey MPS 163783
2006 02 20.40950 10 13 18.51 +11 17 17.9 19.5 V G96 – Mt. Lemmon Survey MPS 163783
2006 02 20.45159 10 13 16.32 +11 17 26.0 19.8 V G96 – Mt. Lemmon Survey MPS 163783
2006 02 20.45962 10 13 15.88 +11 17 27.6 19.6 V G96 – Mt. Lemmon Survey MPS 163783
2006 02 20.46765 10 13 15.45 +11 17 28.8 19.5 V G96 – Mt. Lemmon Survey MPS 163783
2006 02 20.47576 10 13 15.02 +11 17 30.8 19.6 V G96 – Mt. Lemmon Survey MPS 163783
2006 03 23.20057 09 50 41.85 +12 37 15.0 20.4 V G96 – Mt. Lemmon Survey MPS 167037
2006 03 23.20620 09 50 41.71 +12 37 15.4 20.5 V G96 – Mt. Lemmon Survey MPS 167037
2006 03 23.21183 09 50 41.49 +12 37 15.9 20.3 V G96 – Mt. Lemmon Survey MPS 167037
2006 03 23.21745 09 50 41.31 +12 37 16.6 20.6 V G96 – Mt. Lemmon Survey MPS 167037
2006 05 26.17350 10 02 15.14 +10 39 11.8 21.1 V G96 – Mt. Lemmon Survey MPS 172816
2006 05 26.17825 10 02 15.36 +10 39 10.6 21.2 V G96 – Mt. Lemmon Survey MPS 172816
2006 05 26.18308 10 02 15.57 +10 39 09.4 21.7 V G96 – Mt. Lemmon Survey MPS 172816
2006 05 26.18782 10 02 15.75 +10 39 07.7 21.0 V G96 – Mt. Lemmon Survey MPS 172816
2007 05 13.61898 15 35 48.26 -27 02 45.2 19.0 V E12 – Siding Spring Survey MPS 208881
2007 05 13.63022 15 35 47.68 -27 02 43.7 19.1 V E12 – Siding Spring Survey MPS 208881
2007 05 13.64157 15 35 47.14 -27 02 42.7 18.9 V E12 – Siding Spring Survey MPS 208881
2007 05 13.65302 15 35 46.39 -27 02 39.8 19.9 V E12 – Siding Spring Survey MPS 208881
2008 07 29.37877 23 11 22.50 -05 14 29.7 20.0 V 691 – Steward Observatory, Kitt Peak-Spacewatch MPS 252911
2008 07 29.39637 23 11 22.09 -05 14 30.3 19.9 V 691 – Steward Observatory, Kitt Peak-Spacewatch MPS 252911
2008 07 29.41394 23 11 21.70 -05 14 30.7 19.9 V 691 – Steward Observatory, Kitt Peak-Spacewatch MPS 252911
2008 08 21.27561 22 58 05.75 -05 53 52.9 19.4 V 691 – Steward Observatory, Kitt Peak-Spacewatch MPS 254437
2008 08 21.29661 22 58 04.77 -05 53 56.4 19.6 V 691 – Steward Observatory, Kitt Peak-Spacewatch MPS 254437
2008 08 21.31419 22 58 03.94 -05 53 59.5 19.6 V 691 – Steward Observatory, Kitt Peak-Spacewatch MPS 254437
2008 08 24.27015 22 55 45.86 -06 02 22.7 19.6   704 – Lincoln Laboratory ETS, New Mexico MPS 254437
2008 08 24.28300 22 55 45.22 -06 02 26.1 19.7   704 – Lincoln Laboratory ETS, New Mexico MPS 254437
2008 08 24.29584 22 55 44.61 -06 02 28.5 19.8   704 – Lincoln Laboratory ETS, New Mexico MPS 254437
2008 08 24.30865 22 55 43.95 -06 02 30.6 20.1   704 – Lincoln Laboratory ETS, New Mexico MPS 254437
2008 08 24.32145 22 55 43.27 -06 02 33.3 19.9   704 – Lincoln Laboratory ETS, New Mexico MPS 254437
2008 08 25.95796 22 54 24.79 -06 07 25.5 18.8 V J75 – OAM Observatory, La Sagra MPS 254437
2008 08 25.97119 22 54 24.13 -06 07 28.2 19.0 V J75 – OAM Observatory, La Sagra MPS 254437
2008 08 25.98438 22 54 23.48 -06 07 30.7 19.1 V J75 – OAM Observatory, La Sagra MPS 254437
2008 08 26.95317 22 53 36.47 -06 10 27.2 19.0 V J75 – OAM Observatory, La Sagra MPS 254437
2008 08 26.96637 22 53 35.78 -06 10 29.5 19.0 V J75 – OAM Observatory, La Sagra MPS 254437
2008 08 26.97949 22 53 35.13 -06 10 32.0 18.8 V J75 – OAM Observatory, La Sagra MPS 254437
2008 08 27.90971 22 52 49.61 -06 13 23.4 19.4 R 122 – Pises Observatory MPS 254437
2008 08 27.91778 22 52 49.20 -06 13 25.1 19.4 R 122 – Pises Observatory MPS 254437
2008 08 27.92576 22 52 48.79 -06 13 26.3 19.2 R 122 – Pises Observatory MPS 254437
2008 08 28.95508 22 51 58.04 -06 16 37.8 18.9 V J75 – OAM Observatory, La Sagra MPS 254437
2008 08 28.96825 22 51 57.35 -06 16 40.1 19.2 V J75 – OAM Observatory, La Sagra MPS 254437
2008 08 28.98142 22 51 56.72 -06 16 43.1 19.0 V J75 – OAM Observatory, La Sagra MPS 254437
2008 09 02.78213 22 47 57.48 -06 31 54.6 19.4 V A50 – Andrushivka Astronomical Observatory MPS 255806
2008 09 02.78443 22 47 57.39 -06 31 55.2 18.7 V A50 – Andrushivka Astronomical Observatory MPS 255806
2008 09 02.78674 22 47 57.27 -06 31 55.6 18.4 V A50 – Andrushivka Astronomical Observatory MPS 255806
2008 09 02.78904 22 47 57.11 -06 31 56.1 18.9 V A50 – Andrushivka Astronomical Observatory MPS 255806
2008 09 02.79134 22 47 56.98 -06 31 56.4 19.1 V A50 – Andrushivka Astronomical Observatory MPS 255806
2008 09 23.22532 22 32 18.96 -07 30 56.7 19.2 V G96 – Mt. Lemmon Survey MPS 257686
2008 09 23.23081 22 32 18.74 -07 30 58.3 19.4 V G96 – Mt. Lemmon Survey MPS 257686
2008 09 23.23627 22 32 18.52 -07 30 58.1 19.2 V G96 – Mt. Lemmon Survey MPS 257686
2008 09 23.24178 22 32 18.31 -07 30 59.0 19.3 V G96 – Mt. Lemmon Survey MPS 257686
2008 09 24.17103 22 31 43.25 -07 33 03.9 18.9   704 – Lincoln Laboratory ETS, New Mexico MPS 257686
2008 09 24.18328 22 31 42.71 -07 33 06.5 20.0   704 – Lincoln Laboratory ETS, New Mexico MPS 257686
